Date,TemperatureHighF,TemperatureAvgF,TemperatureLowF,DewpointHighF,DewpointAvgF,DewpointLowF,HumidityHigh,HumidityAvg,HumidityLow,PressureMaxIn,PressureMinIn,WindSpeedMaxMPH,WindSpeedAvgMPH,GustSpeedMaxMPH,PrecipitationSumIn
2013-1-1,62,48,39,44,39,35,95,75,38,30.17,30.02,4,0,0,0.01
2013-1-2,70,50,36,39,34,24,89,63,18,30.07,29.96,6,1,0,0.00
2013-1-3,73,51,34,41,34,21,94,63,15,30.10,29.98,6,1,0,0.00
2013-1-4,68,49,35,41,33,20,89,63,16,30.20,30.10,6,0,0,0.00
2013-1-5,67,48,34,44,36,26,94,70,22,30.22,30.11,6,0,0,0.00
2013-1-6,59,51,44,51,46,41,95,84,60,30.13,29.96,11,1,0,0.06
2013-1-7,67,51,38,46,41,35,96,73,33,30.02,29.91,4,0,0,0.00
2013-1-8,68,51,38,56,45,36,95,83,44,30.04,29.95,6,1,0,0.01
2013-1-9,68,53,41,54,48,40,96,85,50,30.06,29.95,6,1,0,0.00
2013-1-10,60,53,45,51,39,28,93,63,31,30.03,29.85,15,3,0,0.02
2013-1-11,57,49,39,33,27,22,63,43,30,30.12,29.99,13,4,0,0.00
2013-1-12,58,46,34,34,30,21,86,56,24,30.09,30.00,10,1,0,0.00
2013-1-13,59,43,31,33,29,21,90,64,24,30.10,29.99,7,1,0,0.00
2013-1-14,58,46,37,32,18,6,74,35,14,30.26,30.06,11,2,0,0.00
2013-1-15,62,44,30,38,28,17,86,59,19,30.39,30.25,5,1,0,0.00
2013-1-16,71,50,34,43,36,30,93,65,22,30.28,30.05,4,0,0,0.00
2013-1-17,82,57,37,39,32,19,88,47,10,30.09,29.96,10,1,0,0.00
2013-1-18,82,60,42,38,31,25,74,40,13,30.06,29.96,6,1,0,0.00
2013-1-19,81,60,44,38,31,24,79,41,12,30.10,29.99,5,0,0,0.00
2013-1-20,84,59,40,37,30,18,72,41,9,30.06,29.92,5,1,0,0.00
2013-1-21,84,58,39,36,30,17,73,43,8,30.01,29.92,5,1,0,0.00
2013-1-22,82,57,38,37,30,17,77,45,10,30.02,29.93,6,0,0,0.00
2013-1-23,74,60,49,54,42,35,86,54,28,30.06,29.93,7,1,0,0.01
2013-1-24,68,59,54,58,54,51,95,86,67,30.13,30.02,6,1,0,0.73
2013-1-25,68,62,59,61,58,56,94,89,74,30.05,29.88,5,1,0,0.13
2013-1-26,68,60,55,64,58,54,96,92,76,29.93,29.83,7,1,0,0.02
2013-1-27,64,56,45,55,50,40,95,80,58,29.96,29.90,10,1,0,0.03
2013-1-28,63,51,38,42,36,30,87,58,30,30.11,29.96,8,2,0,0.00
2013-1-29,61,49,38,46,40,33,90,73,43,30.17,30.09,9,1,0,0.00
2013-1-30,70,53,40,48,43,38,95,71,39,30.27,30.14,6,1,0,0.00
2013-1-31,80,57,42,48,44,40,94,68,26,30.18,30.01,5,1,0,0.00
2013-2-1,73,58,44,52,47,42,93,70,35,30.10,30.02,8,1,0,0.00
2013-2-2,77,62,51,55,50,42,90,68,29,30.12,30.02,3,0,0,0.00
2013-2-3,77,62,52,56,52,48,92,74,38,30.06,29.93,11,1,0,0.00
2013-2-4,67,56,48,57,52,46,95,87,67,30.03,29.91,7,1,0,0.00
2013-2-5,58,55,53,52,51,50,90,85,79,30.04,29.93,6,1,0,0.00
2013-2-6,65,56,46,52,50,44,91,79,61,30.05,29.94,9,1,0,0.00
2013-2-7,63,52,42,53,46,40,95,81,66,30.07,29.93,7,1,0,0.00
2013-2-8,56,50,41,48,43,39,92,78,64,29.93,29.82,11,3,0,0.11
2013-2-9,60,46,35,45,39,33,95,79,50,30.03,29.87,11,1,0,0.00
2013-2-10,59,48,37,47,42,35,94,79,58,30.04,29.95,6,1,0,0.00
2013-2-11,63,50,38,46,41,35,94,73,37,30.17,29.99,7,1,0,0.00
2013-2-12,64,50,36,47,40,33,93,72,37,30.28,30.17,6,1,0,0.00
2013-2-13,68,52,37,48,41,35,94,72,35,30.20,30.06,10,1,0,0.00
2013-2-14,77,54,39,55,45,37,94,74,35,30.14,29.97,6,1,0,0.00
2013-2-15,85,62,42,46,38,26,90,52,13,30.11,30.03,7,1,0,0.00
2013-2-16,84,63,45,37,30,20,64,35,10,30.07,29.90,6,1,0,0.00
2013-2-17,66,54,42,54,47,36,93,78,55,29.96,29.86,9,2,0,0.00
2013-2-18,63,56,54,49,48,45,81,74,59,30.00,29.89,10,2,0,0.00
2013-2-19,59,53,47,48,44,41,91,72,57,29.92,29.65,7,3,0,0.10
2013-2-20,62,52,42,46,36,30,76,57,38,29.92,29.64,11,3,0,0.00
2013-2-21,64,51,41,45,41,36,88,71,38,30.02,29.90,5,1,0,0.00
2013-2-22,64,51,37,50,43,35,94,77,54,30.13,30.02,9,1,0,0.00
2013-2-23,64,52,38,50,44,37,94,77,50,30.09,29.86,10,1,0,0.00
2013-2-24,71,55,41,46,32,16,95,53,13,30.13,29.91,5,1,0,0.01
2013-2-25,68,53,37,47,38,28,85,61,23,30.15,30.00,10,1,0,0.00
2013-2-26,72,54,38,52,43,35,93,70,27,30.03,29.91,10,1,0,0.00
2013-2-27,78,59,42,43,32,20,85,45,13,30.18,30.03,5,1,0,0.00
2013-2-28,82,60,41,41,32,19,78,44,10,30.23,30.16,5,1,0,0.00
2013-3-1,89,64,44,42,35,26,81,43,11,30.22,30.06,5,1,0,0.00
2013-3-2,84,64,46,48,38,31,79,45,15,30.12,30.00,10,1,0,0.00
2013-3-3,70,58,52,56,52,47,91,79,45,30.03,29.91,10,1,0,0.00
2013-3-4,69,58,50,54,52,48,92,79,59,30.03,29.95,9,2,0,0.00
2013-3-5,65,56,49,54,51,47,93,82,66,30.06,29.97,7,1,0,0.00
2013-3-6,66,57,45,51,46,41,88,69,48,30.09,29.95,9,2,0,0.00
2013-3-7,62,56,54,53,51,47,92,82,70,29.95,29.79,11,2,0,0.02
2013-3-8,61,53,46,50,47,43,94,79,57,29.96,29.73,11,2,0,0.76
2013-3-9,65,55,45,49,46,41,91,74,46,30.15,29.94,10,1,0,0.00
2013-3-10,75,58,42,49,44,37,94,66,29,30.20,30.08,7,1,0,0.00
2013-3-11,74,58,42,53,46,40,93,69,35,30.11,29.97,8,1,0,0.00
2013-3-12,80,60,44,56,49,42,95,72,32,30.02,29.93,6,1,0,0.00
2013-3-13,82,61,46,58,51,44,95,73,35,30.04,29.94,9,1,0,0.01
2013-3-14,79,62,52,59,53,49,96,76,44,30.02,29.94,6,1,0,0.00
2013-3-15,66,58,54,57,54,52,94,86,67,29.99,29.88,6,2,0,0.00
2013-3-16,66,57,52,55,52,50,95,84,65,29.92,29.83,11,2,0,0.00
2013-3-17,68,59,54,55,52,50,89,79,62,29.94,29.87,7,2,0,0.00
2013-3-18,66,59,52,54,52,49,88,78,63,30.02,29.92,8,1,0,0.00
2013-3-19,68,57,49,56,52,47,94,83,66,30.05,29.98,8,1,0,0.00
2013-3-20,72,60,50,58,53,48,94,78,53,30.03,29.89,5,1,0,0.00
2013-3-21,70,61,52,58,53,50,94,78,54,29.89,29.74,11,2,0,0.00
2013-3-22,71,60,52,56,53,49,93,79,49,29.85,29.74,9,2,0,0.00
2013-3-23,69,61,53,56,53,50,91,78,60,29.94,29.84,10,2,0,0.00
2013-3-24,75,62,51,57,54,49,92,76,52,29.95,29.82,7,1,0,0.00
2013-3-25,73,60,52,57,54,49,95,83,50,29.91,29.82,9,1,0,0.00
2013-3-26,69,60,53,56,54,51,94,80,62,29.90,29.83,6,1,0,0.00
2013-3-27,68,60,53,55,53,50,90,78,62,29.98,29.86,11,2,0,0.00
2013-3-28,74,61,52,58,54,50,92,79,57,30.00,29.94,10,1,0,0.00
2013-3-29,73,61,53,59,55,51,93,82,60,30.05,29.97,5,1,0,0.00
2013-3-30,72,61,56,58,55,51,91,80,60,30.07,29.99,7,2,0,0.00
2013-3-31,70,61,55,59,56,52,91,82,67,30.07,29.99,10,2,0,0.00
2013-4-1,70,60,53,55,53,50,89,77,55,30.10,30.00,9,2,0,0.00
2013-4-2,70,61,54,56,54,51,90,78,60,30.03,29.92,9,1,0,0.00
2013-4-3,76,62,53,59,55,50,94,79,50,30.02,29.91,8,1,0,0.00
2013-4-4,74,63,58,58,56,54,89,77,56,30.04,29.95,5,1,0,0.00
2013-4-5,69,62,58,58,56,55,91,82,66,30.02,29.94,10,3,0,0.00
2013-4-6,71,63,56,58,56,52,92,78,62,30.02,29.89,10,2,0,0.00
2013-4-7,71,63,58,58,56,54,91,78,62,29.89,29.74,11,3,0,0.00
2013-4-8,69,61,56,56,49,41,91,66,40,29.76,29.59,12,4,0,0.00
2013-4-9,77,63,49,50,40,30,80,48,19,29.92,29.74,11,2,0,0.00
2013-4-10,83,64,48,52,44,29,92,58,14,30.02,29.91,10,1,0,0.00
2013-4-11,72,60,49,57,52,47,91,76,45,29.93,29.72,11,2,0,0.00
2013-4-12,74,62,56,56,54,52,89,75,54,29.83,29.71,9,2,0,0.00
2013-4-13,62,58,56,56,54,51,93,86,79,29.85,29.77,6,2,0,0.00
2013-4-14,64,59,55,54,53,51,87,80,71,29.82,29.76,8,2,0,0.00
2013-4-15,66,60,57,56,52,48,91,78,66,29.84,29.77,9,3,0,0.02
2013-4-16,68,59,50,49,45,29,83,62,30,29.91,29.80,12,3,0,0.00
2013-4-17,74,64,53,45,32,21,74,33,15,30.05,29.91,8,2,0,0.00
2013-4-18,82,64,47,45,33,17,84,42,10,30.12,30.03,13,2,0,0.00
2013-4-19,87,66,46,50,36,20,81,42,9,30.08,29.90,7,1,0,0.00
2013-4-20,81,66,53,57,52,45,93,65,31,29.92,29.80,11,2,0,0.00
2013-4-21,74,63,56,60,56,52,94,80,48,29.95,29.88,11,2,0,0.00
2013-4-22,70,62,57,56,54,52,87,77,59,29.95,29.84,11,2,0,0.00
2013-4-23,72,62,57,56,53,51,86,73,55,29.91,29.79,7,1,0,0.00
2013-4-24,64,61,59,56,54,51,86,79,64,29.92,29.83,6,1,0,0.00
2013-4-25,74,64,58,55,53,50,86,70,45,30.05,29.89,12,2,0,0.00
2013-4-26,78,64,50,57,53,48,92,71,42,30.09,30.03,6,1,0,0.00
2013-4-27,78,64,51,60,55,49,94,76,51,30.09,29.93,6,1,0,0.00
2013-4-28,77,64,58,61,57,54,90,78,56,29.96,29.79,10,1,0,0.00
2013-4-29,69,62,58,58,56,55,91,83,66,29.84,29.72,9,2,0,0.00
2013-4-30,66,62,59,57,55,54,85,79,70,29.83,29.76,10,2,0,0.00
2013-5-1,76,66,60,60,57,55,86,74,55,30.03,29.83,10,1,0,0.00
2013-5-2,95,71,54,59,51,13,93,58,5,30.05,29.92,9,1,0,0.00
2013-5-3,96,74,55,58,42,17,86,41,6,29.94,29.71,10,1,0,0.00
2013-5-4,70,64,59,59,57,53,91,78,64,29.79,29.69,16,4,0,0.00
2013-5-5,68,62,58,56,54,52,90,75,60,29.88,29.76,11,3,0,0.01
2013-5-6,69,62,57,61,57,55,95,84,63,29.94,29.83,13,3,0,0.38
2013-5-7,72,63,56,59,54,49,95,76,50,30.00,29.91,12,2,0,0.07
2013-5-8,74,64,56,58,54,50,90,70,46,30.03,29.99,10,2,0,0.00
2013-5-9,71,63,54,59,56,51,92,77,59,30.03,29.95,13,1,0,0.01
2013-5-10,80,67,56,62,59,54,94,77,53,30.02,29.94,7,1,0,0.00
2013-5-11,82,68,60,66,61,57,93,78,57,30.01,29.92,7,1,0,0.00
2013-5-12,89,72,60,67,62,58,94,72,40,29.99,29.84,6,1,0,0.00
2013-5-13,98,78,62,66,59,51,92,58,26,29.89,29.79,6,1,0,0.00
2013-5-14,80,69,60,61,56,50,85,65,40,29.93,29.83,9,2,0,0.00
2013-5-15,72,64,59,60,57,53,89,78,63,29.98,29.89,10,2,0,0.00
2013-5-16,74,65,61,61,57,55,87,75,60,29.91,29.83,12,1,0,0.00
2013-5-17,73,66,61,61,58,56,86,76,63,29.93,29.84,14,2,0,0.00
2013-5-18,74,66,58,59,57,55,91,75,54,29.97,29.89,11,2,0,0.00
2013-5-19,74,66,58,61,58,55,91,76,59,29.92,29.81,10,2,0,0.00
2013-5-20,80,68,58,64,61,55,93,79,58,29.88,29.81,9,2,0,0.00
2013-5-21,75,68,63,63,61,59,88,80,66,29.88,29.77,10,2,0,0.00
2013-5-22,74,67,63,61,58,56,87,74,61,29.79,29.71,10,2,0,0.00
2013-5-23,74,65,58,58,55,51,86,72,58,29.86,29.75,9,2,0,0.00
2013-5-24,71,64,56,58,55,51,87,75,60,29.92,29.85,13,2,0,0.00
2013-5-25,74,65,58,59,55,53,86,73,54,29.96,29.90,10,2,0,0.00
2013-5-26,71,64,57,59,56,53,89,77,61,29.99,29.92,12,2,0,0.00
2013-5-27,76,66,58,60,58,55,90,75,58,29.93,29.79,10,2,0,0.00
2013-5-28,79,68,62,63,60,58,88,76,50,29.82,29.68,10,3,0,0.00
2013-5-29,83,69,62,65,61,57,89,77,41,29.74,29.65,10,2,0,0.00
2013-5-30,76,67,60,64,61,57,91,81,65,29.82,29.70,11,3,0,0.00
2013-5-31,82,69,63,65,61,59,86,76,56,29.85,29.74,7,1,0,0.00
2013-6-1,83,70,64,67,63,60,88,79,58,29.80,29.69,10,2,0,0.00
2013-6-2,69,66,64,62,60,57,87,83,75,29.77,29.71,10,2,0,0.00
2013-6-3,73,66,63,62,59,58,85,78,68,29.83,29.73,10,2,0,0.00
2013-6-4,74,66,62,62,59,58,85,77,63,29.91,29.82,10,1,0,0.00
2013-6-5,76,67,61,61,58,57,86,75,57,29.94,29.85,8,2,0,0.00
2013-6-6,76,66,61,62,59,57,87,79,60,29.88,29.80,6,1,0,0.00
2013-6-7,73,65,62,63,59,57,86,81,69,29.85,29.72,11,2,0,0.00
2013-6-8,71,64,62,62,59,58,88,83,72,29.85,29.73,8,2,0,0.00
2013-6-9,71,64,59,62,59,56,88,83,72,29.87,29.81,9,2,0,0.00
2013-6-10,80,68,59,61,59,55,89,74,50,29.89,29.82,9,1,0,0.00
2013-6-11,81,70,60,65,61,57,91,74,57,29.88,29.82,9,2,0,0.00
2013-6-12,72,66,64,63,61,59,88,83,73,29.97,29.86,10,2,0,0.00
2013-6-13,79,68,61,62,60,57,88,76,58,29.94,29.83,10,2,0,0.00
2013-6-14,72,65,60,61,59,56,90,81,66,29.86,29.79,9,2,0,0.00
2013-6-15,76,66,60,61,58,56,87,76,57,29.91,29.83,10,2,0,0.00
2013-6-16,80,68,60,62,59,57,89,75,53,29.97,29.88,11,2,0,0.00
2013-6-17,78,68,57,63,60,55,92,77,56,29.92,29.81,9,2,0,0.00
2013-6-18,78,68,60,63,60,57,91,77,56,29.86,29.76,10,2,0,0.00
2013-6-19,82,69,60,63,60,57,89,73,44,29.80,29.72,13,2,0,0.00
2013-6-20,82,69,58,63,59,51,93,73,37,29.80,29.73,11,2,0,0.00
2013-6-21,77,68,59,63,61,57,93,77,58,29.84,29.76,11,2,0,0.00
2013-6-22,76,69,63,62,61,59,89,76,59,29.85,29.74,10,2,0,0.00
2013-6-23,73,67,64,62,60,58,87,77,65,29.82,29.73,12,2,0,0.00
2013-6-24,76,68,63,62,60,59,89,76,58,29.88,29.76,10,2,0,0.00
2013-6-25,79,69,63,65,62,60,90,80,58,29.93,29.83,6,1,0,0.00
2013-6-26,86,72,61,67,63,59,92,75,53,29.92,29.83,11,2,0,0.00
2013-6-27,84,72,65,68,65,62,92,79,57,29.96,29.89,8,2,0,0.00
2013-6-28,91,74,64,69,65,62,94,75,46,29.94,29.80,10,2,0,0.00
2013-6-29,91,77,65,70,65,62,90,69,45,29.82,29.67,10,1,0,0.00
2013-6-30,84,72,67,70,66,64,92,82,60,29.75,29.64,11,3,0,0.00
2013-7-1,93,74,66,69,66,62,92,79,38,29.83,29.74,12,2,0,0.00
2013-7-2,79,70,66,68,66,64,94,85,68,29.94,29.81,12,3,0,0.00
2013-7-3,82,71,65,68,64,62,91,81,59,29.87,29.74,6,1,0,0.00
2013-7-4,81,71,64,66,63,61,91,79,58,29.77,29.68,9,2,0,0.00
2013-7-5,78,70,65,66,63,62,89,80,64,29.77,29.70,10,2,0,0.00
2013-7-6,79,70,66,67,64,62,88,81,63,29.77,29.68,7,1,0,0.00
2013-7-7,83,72,66,68,64,61,87,77,58,29.80,29.71,8,2,0,0.00
2013-7-8,88,71,61,69,62,58,93,76,46,29.86,29.79,7,1,0,0.00
2013-7-9,79,72,63,67,64,60,91,77,61,29.94,29.82,13,2,0,0.00
2013-7-10,77,71,67,68,66,63,90,84,72,29.91,29.83,10,2,0,0.00
2013-7-11,73,70,68,67,66,65,89,86,80,29.91,29.83,6,1,0,0.00
2013-7-12,84,72,64,69,65,61,90,80,56,29.86,29.78,7,1,0,0.00
2013-7-13,85,71,62,67,63,60,91,77,51,29.89,29.79,7,2,0,0.00
2013-7-14,85,72,63,67,64,60,91,76,49,29.86,29.75,11,2,0,0.00
2013-7-15,88,72,64,68,63,57,93,74,43,29.80,29.73,6,1,0,0.00
2013-7-16,86,71,57,65,59,54,92,70,39,29.91,29.79,7,2,0,0.00
2013-7-17,88,72,58,64,59,55,93,66,39,29.94,29.88,6,2,0,0.00
2013-7-18,83,70,60,65,61,57,91,73,54,29.92,29.79,11,2,0,0.00
2013-7-19,77,69,61,65,62,58,92,81,66,29.83,29.75,10,2,0,0.00
2013-7-20,74,68,65,66,63,62,89,85,76,29.82,29.74,7,2,0,0.00
2013-7-21,70,67,65,65,63,62,89,86,82,29.86,29.73,7,2,0,0.00
2013-7-22,84,73,65,67,65,62,91,76,57,29.92,29.84,7,2,0,0.00
2013-7-23,83,71,64,67,63,61,90,78,55,29.96,29.86,7,1,0,0.00
2013-7-24,81,70,64,66,63,60,90,79,61,29.91,29.83,5,1,0,0.00
2013-7-25,81,69,61,65,62,58,91,79,58,29.95,29.86,11,2,0,0.00
2013-7-26,85,70,65,67,63,60,91,79,56,30.02,29.90,5,1,0,0.04
2013-7-27,79,70,63,65,62,59,90,78,62,29.95,29.81,11,2,0,0.00
2013-7-28,75,67,62,64,61,59,91,81,67,29.86,29.80,10,2,0,0.00
2013-7-29,78,67,63,62,59,57,86,76,56,29.97,29.85,11,2,0,0.00
2013-7-30,79,67,58,63,59,56,91,77,55,30.05,29.97,8,2,0,0.00
2013-7-31,77,67,60,63,60,57,90,78,58,30.03,29.93,7,1,0,0.00
2013-8-1,77,68,61,62,60,57,88,75,58,29.96,29.83,11,2,0,0.00
2013-8-2,79,69,62,63,61,58,89,76,53,29.91,29.83,11,2,0,0.00
2013-8-3,79,69,63,64,62,59,88,77,60,29.93,29.85,10,2,0,0.00
2013-8-4,80,68,62,65,61,59,90,79,57,29.95,29.86,9,1,0,0.00
2013-8-5,82,67,61,63,60,58,91,80,52,29.94,29.85,7,1,0,0.00
2013-8-6,79,68,61,62,60,57,90,77,54,29.97,29.90,9,2,0,0.00
2013-8-7,79,67,60,62,60,57,90,79,56,30.02,29.91,6,2,0,0.00
2013-8-8,79,66,56,63,60,54,93,80,58,29.93,29.83,7,2,0,0.00
2013-8-9,75,66,59,62,59,56,92,80,62,29.90,29.84,9,2,0,0.00
2013-8-10,75,67,59,62,60,56,91,78,62,29.97,29.88,8,2,0,0.00
2013-8-11,80,68,60,64,60,57,92,79,55,29.93,29.82,7,1,0,0.00
2013-8-12,80,68,59,65,61,57,91,80,60,29.91,29.82,8,2,0,0.00
2013-8-13,83,69,61,66,62,58,91,79,55,29.91,29.80,6,1,0,0.00
2013-8-14,76,68,62,66,62,59,92,84,68,29.86,29.76,10,2,0,0.00
2013-8-15,79,69,64,66,63,61,91,81,63,29.88,29.81,10,2,0,0.00
2013-8-16,86,72,63,68,64,61,94,77,52,29.89,29.83,9,1,0,0.00
2013-8-17,85,71,62,67,62,59,92,76,50,29.88,29.74,6,1,0,0.00
2013-8-18,76,68,63,66,62,60,92,84,70,29.85,29.76,10,2,0,0.00
2013-8-19,77,69,64,66,63,61,89,82,67,29.88,29.78,7,2,0,0.00
2013-8-20,84,70,63,65,62,60,91,78,53,29.86,29.77,7,1,0,0.00
2013-8-21,84,71,60,66,61,57,92,72,49,29.85,29.76,7,1,0,0.00
2013-8-22,88,74,61,64,60,56,91,64,35,29.86,29.73,9,2,0,0.00
2013-8-23,90,72,60,65,60,57,92,69,34,29.80,29.66,7,1,0,0.00
2013-8-24,83,68,59,65,61,56,93,78,53,29.81,29.69,10,2,0,0.00
2013-8-25,87,70,60,65,61,58,94,76,42,29.85,29.77,7,1,0,0.00
2013-8-26,93,76,63,66,61,55,91,64,38,29.84,29.74,6,1,0,0.00
2013-8-27,91,75,67,67,62,57,86,66,32,29.77,29.70,10,2,0,0.00
2013-8-28,94,77,65,66,62,52,88,62,32,29.82,29.70,7,1,0,0.00
2013-8-29,98,80,66,66,61,55,87,56,32,29.86,29.79,8,1,0,0.00
2013-8-30,91,80,72,71,67,61,80,64,46,29.90,29.82,10,2,0,0.00
2013-8-31,93,82,73,74,69,65,80,67,51,29.89,29.80,7,1,0,0.00
2013-9-4,94,82,74,66,63,62,70,54,39,29.80,29.76,7,2,0,0.00
2013-9-5,97,80,67,70,64,61,88,63,37,29.81,29.74,10,1,0,0.00
2013-9-6,99,80,66,70,64,59,91,62,31,29.79,29.71,9,1,0,0.00
2013-9-7,96,79,68,69,64,60,88,63,35,29.78,29.72,11,1,0,0.00
2013-9-8,87,73,63,67,63,59,91,73,50,29.78,29.69,6,1,0,0.00
2013-9-9,82,70,63,65,62,59,90,76,52,29.75,29.67,6,1,0,0.00
2013-9-10,80,68,61,63,60,58,90,76,55,29.88,29.74,6,1,0,0.00
2013-9-11,79,67,59,64,61,56,92,80,57,29.94,29.85,10,1,0,0.00
2013-9-12,88,71,58,66,62,56,94,74,46,29.88,29.75,5,1,0,0.00
2013-9-13,87,71,59,66,62,57,93,75,47,29.77,29.59,6,1,0,0.00
2013-9-14,87,71,62,68,63,59,94,77,47,29.65,29.56,10,1,0,0.00
2013-9-15,90,73,63,69,64,61,94,76,49,29.70,29.63,10,1,0,0.00
2013-9-16,89,73,62,67,62,59,94,72,44,29.75,29.66,5,1,0,0.00
2013-9-17,75,67,63,64,62,60,93,85,68,29.75,29.66,10,2,0,0.00
2013-9-18,77,68,63,63,61,59,91,77,62,29.74,29.68,10,2,0,0.00
2013-9-19,77,67,58,65,61,56,93,83,64,29.76,29.69,11,2,0,0.00
2013-9-20,72,68,66,64,62,62,88,83,74,29.82,29.74,5,1,0,0.00
2013-9-21,77,69,63,62,60,58,88,74,55,29.85,29.74,8,2,0,0.00
2013-9-22,78,67,57,63,57,48,93,71,40,29.78,29.71,10,1,0,0.00
2013-9-23,95,72,54,60,54,44,92,59,18,29.82,29.72,5,1,0,0.00
2013-9-24,90,72,57,63,56,45,93,62,24,29.85,29.76,5,1,0,0.00
2013-9-25,75,68,62,64,60,53,89,76,62,29.79,29.64,14,3,0,0.00
2013-9-26,77,66,58,59,54,46,88,66,36,29.80,29.65,10,2,0,0.00
2013-9-27,86,68,51,57,47,36,92,55,17,29.91,29.80,6,1,0,0.00
2013-9-28,91,69,50,53,45,33,86,50,13,29.96,29.88,6,1,0,0.00
2013-9-29,86,68,51,58,51,45,85,59,24,29.99,29.89,7,1,0,0.00
2013-9-30,81,68,56,64,59,53,94,75,49,29.92,29.77,10,1,0,0.00
2013-10-1,78,67,58,64,60,55,93,80,57,29.86,29.80,9,2,0,0.00
2013-10-2,75,67,63,62,60,58,86,78,63,29.90,29.80,7,2,0,0.00
2013-10-3,76,67,61,62,60,58,90,80,61,29.86,29.75,10,1,0,0.00
2013-10-4,88,73,58,63,51,23,92,55,13,29.95,29.81,7,1,0,0.00
2013-10-5,94,78,61,44,32,22,54,21,8,30.02,29.94,13,2,0,0.00
2013-10-6,95,72,51,52,40,18,70,40,6,30.00,29.87,5,1,0,0.00
2013-10-7,86,67,55,61,54,41,88,66,20,29.89,29.82,6,1,0,0.00
2013-10-8,73,64,55,60,57,52,93,79,60,29.86,29.75,10,2,0,0.00
2013-10-9,67,61,54,56,52,47,86,72,55,29.76,29.64,7,2,0,0.07
2013-10-10,70,59,48,55,50,46,94,75,50,29.94,29.73,12,1,0,0.00
2013-10-11,76,61,48,58,53,46,93,77,46,29.97,29.87,6,1,0,0.00
2013-10-12,76,62,50,61,56,48,94,82,55,29.91,29.82,9,1,0,0.01
2013-10-13,70,62,56,59,56,53,92,81,62,29.95,29.86,7,1,0,0.00
2013-10-14,85,65,50,59,54,48,94,72,31,29.95,29.82,5,1,0,0.00
2013-10-15,89,68,51,55,47,37,92,56,17,29.89,29.78,6,1,0,0.00
2013-10-16,88,68,50,49,42,29,81,47,13,29.98,29.89,10,1,0,0.00
2013-10-17,82,65,48,59,48,40,85,59,22,29.95,29.85,6,1,0,0.00
2013-10-18,85,65,50,59,53,45,93,68,29,29.93,29.85,6,1,0,0.00
2013-10-19,84,66,53,64,56,49,94,73,36,29.94,29.88,6,1,0,0.00
2013-10-20,74,64,55,62,58,53,93,83,65,29.92,29.82,7,1,0,0.00
2013-10-21,74,63,56,60,57,53,93,81,59,29.91,29.83,6,1,0,0.01
2013-10-22,76,62,52,62,57,50,93,83,60,29.93,29.82,4,1,0,0.00
2013-10-23,69,63,55,59,57,52,91,82,68,29.91,29.83,9,1,0,0.00
2013-10-24,71,63,55,59,56,52,89,78,65,29.98,29.88,6,1,0,0.00
2013-10-25,73,63,53,60,57,51,92,82,64,30.05,29.93,5,1,0,0.00
2013-10-26,77,62,54,63,57,52,94,85,57,30.02,29.89,4,0,0,0.00
2013-10-27,71,63,54,62,58,52,94,86,73,29.91,29.75,8,1,0,0.00
2013-10-28,69,62,56,57,54,50,89,75,56,29.86,29.75,14,3,0,0.00
2013-10-29,68,58,51,55,51,49,93,78,58,29.94,29.85,12,1,0,0.01
2013-10-30,73,58,46,55,50,44,94,76,44,29.99,29.91,9,1,0,0.00
2013-10-31,82,61,46,55,48,39,94,66,22,30.01,29.90,7,1,0,0.00
2013-11-1,89,65,46,52,45,36,92,56,16,30.02,29.85,6,0,0,0.00
2013-11-2,82,63,48,59,51,41,92,71,25,29.91,29.80,12,2,0,0.00
2013-11-3,69,62,57,58,56,53,92,81,64,29.85,29.75,10,1,0,0.00
2013-11-4,69,62,53,57,54,50,89,77,64,29.86,29.73,11,2,0,0.00
2013-11-5,79,61,47,56,44,33,94,62,19,30.06,29.86,5,0,0,0.00
2013-11-6,85,63,44,46,38,24,80,47,11,30.11,30.00,6,1,0,0.00
2013-11-7,87,66,49,46,37,24,77,40,11,30.03,29.91,6,1,0,0.00
2013-11-8,75,60,46,59,51,42,92,74,46,29.96,29.86,7,1,0,0.00
2013-11-9,76,61,53,57,52,37,94,77,25,30.00,29.92,7,1,0,0.00
2013-11-10,83,60,49,58,50,39,94,75,21,30.05,29.95,11,1,0,0.01
2013-11-11,81,60,44,54,49,42,94,71,26,30.05,29.94,3,0,0,0.00
2013-11-12,77,61,50,57,52,48,93,76,41,30.08,29.97,3,0,0,0.00
2013-11-13,94,67,48,56,48,39,93,59,15,29.97,29.80,5,0,0,0.00
2013-11-14,90,67,50,61,48,37,91,57,16,29.84,29.69,7,1,0,0.00
2013-11-15,70,62,58,60,57,54,92,83,67,29.70,29.60,13,2,0,0.00
2013-11-16,68,60,52,56,52,48,91,76,55,29.86,29.68,11,2,0,0.00
2013-11-17,70,59,49,56,52,47,93,78,59,30.00,29.87,10,1,0,0.00
2013-11-18,69,61,51,58,55,48,94,81,64,30.08,29.97,4,1,0,0.00
2013-11-19,67,60,56,56,54,52,89,80,64,30.00,29.88,5,1,0,0.00
2013-11-20,65,60,54,58,55,51,93,85,72,29.91,29.82,6,1,0,0.11
2013-11-21,65,60,54,61,56,51,95,89,77,29.81,29.75,5,1,0,0.15
2013-11-22,65,56,51,53,47,42,94,73,49,29.88,29.75,10,1,0,0.01
2013-11-23,69,57,47,50,46,42,89,69,40,30.01,29.87,6,1,0,0.00
2013-11-24,69,55,44,52,46,41,91,72,39,30.11,30.00,5,1,0,0.00
2013-11-25,75,56,43,53,46,40,93,71,35,30.16,30.07,4,1,0,0.00
2013-11-26,79,58,44,54,46,41,92,68,29,30.11,29.96,5,0,0,0.00
2013-11-27,75,58,47,51,46,42,89,68,33,29.95,29.80,9,1,0,0.00
2013-11-28,70,57,45,57,50,42,90,78,50,29.98,29.81,10,1,0,0.00
2013-11-29,64,57,51,58,54,49,94,88,78,30.11,29.98,4,0,0,0.37
2013-11-30,78,60,50,56,51,48,95,75,39,30.11,29.99,3,1,0,0.00
2013-12-1,83,62,47,52,46,40,93,63,22,30.13,30.00,4,0,0,0.00
2013-12-2,74,56,44,52,46,40,89,71,31,30.03,29.83,4,0,0,0.00
2013-12-3,66,56,46,56,50,44,92,82,69,29.83,29.68,11,2,0,0.00
2013-12-4,63,53,44,47,39,30,82,62,36,29.89,29.70,7,1,0,0.00
2013-12-5,63,49,38,43,38,34,90,69,38,30.03,29.87,4,1,0,0.00
2013-12-6,60,48,39,45,41,36,91,76,56,30.10,30.02,8,1,0,0.00
2013-12-7,59,48,40,53,42,33,93,80,59,30.05,29.92,6,1,0,0.19
2013-12-8,57,45,34,40,36,31,91,74,49,30.13,30.02,5,0,0,0.00
2013-12-9,65,48,34,39,24,6,92,49,13,30.21,30.11,8,1,0,0.00
2013-12-10,69,52,38,38,24,7,65,37,13,30.18,30.00,6,2,0,0.00
2013-12-11,75,54,36,44,32,22,86,50,15,30.08,30.01,6,1,0,0.00
2013-12-12,67,52,40,54,45,35,90,76,51,30.13,30.05,10,1,0,0.00
2013-12-13,66,51,39,51,45,37,94,81,45,30.15,30.04,3,0,0,0.00
2013-12-14,77,55,40,48,40,32,94,63,20,30.20,30.10,3,0,0,0.01
2013-12-15,82,60,40,39,34,24,80,46,12,30.16,29.98,5,1,0,0.00
2013-12-16,86,66,51,49,39,31,66,40,17,30.03,29.96,7,1,0,0.00
2013-12-17,77,61,47,55,49,43,85,66,35,30.04,29.92,3,0,0,0.00
2013-12-18,69,59,53,58,54,50,91,82,58,29.92,29.78,6,1,0,0.00
2013-12-19,58,53,45,51,48,42,90,82,70,29.79,29.64,5,1,0,0.18
2013-12-20,63,50,39,52,45,37,94,85,69,29.87,29.69,6,1,0,0.00
2013-12-21,62,51,42,53,46,41,94,85,70,30.00,29.84,5,1,0,0.01
2013-12-22,70,52,40,54,46,38,95,81,49,30.18,30.01,6,0,0,0.00
2013-12-23,78,57,42,50,44,39,94,67,26,30.23,30.09,3,0,0,0.01
2013-12-24,80,59,43,52,44,39,87,62,26,30.11,30.00,4,0,0,0.00
2013-12-25,84,61,44,44,35,22,83,47,10,30.11,30.02,4,0,0,0.00
2013-12-26,84,61,43,34,27,15,63,33,8,30.08,29.97,11,1,0,0.00
2013-12-27,85,59,40,38,31,18,66,41,8,30.06,29.95,6,0,0,0.00
2013-12-28,69,56,46,56,46,38,91,71,34,29.96,29.85,8,1,0,0.00
2013-12-29,79,58,46,50,39,22,95,61,12,30.06,29.93,3,0,0,0.01
2013-12-30,75,53,37,42,36,27,87,58,17,30.18,30.05,5,0,0,0.00
2013-12-31,71,52,37,53,41,33,91,70,26,30.12,30.00,5,0,0,0.00
2014-1-1,71,54,43,54,46,41,94,76,35,30.06,29.96,4,0,0,0.00
2014-1-2,81,56,41,55,46,36,94,74,20,30.02,29.90,5,0,0,0.01